TimeAWST,TemperatureF,Dew PointF,Humidity,Sea Level PressureIn,VisibilityMPH,Wind Direction,Wind SpeedMPH,Gust SpeedMPH,PrecipitationIn,Events,Conditions,WindDirDegrees,DateUTC
12:00 AM,79,75,83,29.80,,North,3.5,,,,,10,2013-05-06 16:00:00
12:00 AM,78.8,75.2,89,29.80,-9999.0,North,3.5,-,N/A,,Unknown,10,2013-05-06 16:00:00
1:00 AM,78.8,75.2,89,29.80,-9999.0,Calm,Calm,-,N/A,,Unknown,0,2013-05-06 17:00:00
2:00 AM,75.2,71.6,89,29.77,-9999.0,Calm,Calm,-,N/A,,Unknown,0,2013-05-06 18:00:00
3:00 AM,75,72,89,29.77,,Calm,Calm,,,,,,2013-05-06 19:00:00
3:00 AM,75.2,71.6,89,29.77,-9999.0,Calm,Calm,-,N/A,,Unknown,0,2013-05-06 19:00:00
4:00 AM,73.4,71.6,94,29.77,-9999.0,North,3.5,-,N/A,,Unknown,10,2013-05-06 20:00:00
5:00 AM,75.2,73.4,94,29.80,-9999.0,ENE,5.8,-,N/A,,Unknown,70,2013-05-06 21:00:00
6:00 AM,76,76,99,29.82,,ENE,5.8,,,,,60,2013-05-06 22:00:00
6:00 AM,77.0,75.2,94,29.83,-9999.0,ENE,5.8,-,N/A,,Unknown,60,2013-05-06 22:00:00
7:00 AM,77.0,77.0,100,29.83,-9999.0,ENE,2.3,-,N/A,,Unknown,60,2013-05-06 23:00:00
8:00 AM,86.0,77.0,74,29.83,-9999.0,NNE,6.9,-,N/A,,Unknown,20,2013-05-07 00:00:00
9:00 AM,89,77,60,29.85,,North,6.9,,,,,350,2013-05-07 01:00:00
9:00 AM,89.6,77.0,66,29.86,-9999.0,North,6.9,-,N/A,,Unknown,350,2013-05-07 01:00:00
10:00 AM,93.2,73.4,52,29.83,-9999.0,North,5.8,-,N/A,,Unknown,350,2013-05-07 02:00:00
11:00 AM,95.0,71.6,47,29.80,-9999.0,NNW,5.8,-,N/A,,Unknown,340,2013-05-07 03:00:00
12:00 PM,98,69,30,29.78,,NNW,6.9,,,,,340,2013-05-07 04:00:00
12:00 PM,98.6,69.8,39,29.77,-9999.0,NNW,6.9,-,N/A,,Unknown,340,2013-05-07 04:00:00
1:00 PM,100.4,64.4,31,29.74,-9999.0,North,8.1,-,N/A,,Unknown,10,2013-05-07 05:00:00
2:00 PM,100.4,62.6,29,29.74,-9999.0,NNE,6.9,-,N/A,,Unknown,20,2013-05-07 06:00:00
3:00 PM,98,68,28,29.73,,North,6.9,,,,,350,2013-05-07 07:00:00
3:00 PM,98.6,68.0,37,29.71,-9999.0,North,6.9,-,N/A,,Unknown,350,2013-05-07 07:00:00
4:00 PM,95.0,68.0,41,29.74,-9999.0,NNW,6.9,-,N/A,,Unknown,330,2013-05-07 08:00:00
5:00 PM,89.6,66.2,46,29.74,-9999.0,NW,5.8,-,N/A,,Unknown,310,2013-05-07 09:00:00
6:00 PM,85,67,46,29.78,,NW,3.5,,,,,310,2013-05-07 10:00:00
6:00 PM,84.2,68.0,58,29.77,-9999.0,NW,3.5,-,N/A,,Unknown,310,2013-05-07 10:00:00
7:00 PM,82.4,68.0,62,29.80,-9999.0,North,3.5,-,N/A,,Unknown,350,2013-05-07 11:00:00
8:00 PM,80.6,69.8,70,29.83,-9999.0,Calm,Calm,-,N/A,,Unknown,0,2013-05-07 12:00:00
9:00 PM,78,69,66,29.84,,Calm,Calm,,,,,,2013-05-07 13:00:00
9:00 PM,77.0,68.0,74,29.83,-9999.0,Calm,Calm,-,N/A,,Unknown,0,2013-05-07 13:00:00
10:00 PM,78.8,73.4,83,29.83,-9999.0,NW,3.5,-,N/A,,Unknown,310,2013-05-07 14:00:00
11:00 PM,77.0,71.6,83,29.83,-9999.0,WSW,4.6,-,N/A,,Unknown,240,2013-05-07 15:00:00